Terminal Aerodrome Forecast
Issued by NWS Louisville, KY

Home | Current Version | Previous Version | Text Only | Print | Product List | Glossary On
Versions: 1 2 3 4 5 6 7 8 9 10 11 12 13 14 15 16 17 18 19 20 21 22 23 24
263
FTUS43 KLMK 201739
TAFBWG
TAF
KBWG 201739Z 2018/2118 22010G20KT P6SM VCSH SCT050
     FM202300 21007KT 6SM -SHRA VCTS BKN050CB
     FM210300 22007KT P6SM VCSH SCT050 BKN120
     FM210900 28006KT P6SM VCSH BKN009
     FM211400 34006KT P6SM VCSH BKN015=

USA.gov is the U.S. government's official web portal to all federal, state and local government web resources and services.